Time,TemperatureF,DewpointF,PressureIn,WindDirection,WindDirectionDegrees,WindSpeedMPH,WindSpeedGustMPH,Humidity,HourlyPrecipIn,Conditions,Clouds,dailyrainin,SoftwareType,DateUTC
2013-03-28 00:00:00,31.9,25.8,30.38,WSW,253,0.0,0.0,78,0.00,,CLR,0.00,VWS V14.01,2013-03-28 05:00:00,
2013-03-28 00:03:00,31.9,25.8,30.38,WSW,253,0.0,0.0,78,0.00,,,0.00,VWS V14.01,2013-03-28 05:03:00,
2013-03-28 00:08:00,31.8,25.7,30.38,WSW,253,0.0,0.0,78,0.00,,,0.00,VWS V14.01,2013-03-28 05:08:00,
2013-03-28 00:10:00,31.8,25.7,30.38,WSW,253,0.0,0.0,78,0.00,,CLR,0.00,VWS V14.01,2013-03-28 05:10:00,
2013-03-28 00:13:00,31.5,25.4,30.38,WSW,253,0.0,0.0,78,0.00,,,0.00,VWS V14.01,2013-03-28 05:13:00,
2013-03-28 00:19:00,31.4,25.6,30.38,WSW,253,0.0,0.0,79,0.00,,,0.00,VWS V14.01,2013-03-28 05:19:00,
2013-03-28 00:20:00,31.4,25.6,30.38,WSW,253,0.0,0.0,79,0.00,,CLR,0.00,VWS V14.01,2013-03-28 05:20:00,
2013-03-28 00:24:00,31.6,25.9,30.39,WSW,255,0.0,0.0,79,0.00,,,0.00,VWS V14.01,2013-03-28 05:24:00,
2013-03-28 00:29:00,31.7,25.6,30.38,WSW,255,0.0,0.0,78,0.00,,,0.00,VWS V14.01,2013-03-28 05:29:00,
2013-03-28 00:30:00,31.8,25.7,30.38,WSW,255,0.0,0.0,78,0.00,,CLR,0.00,VWS V14.01,2013-03-28 05:30:00,
2013-03-28 00:34:00,31.9,25.5,30.38,WSW,256,0.0,0.0,77,0.00,,,0.00,VWS V14.01,2013-03-28 05:34:00,
2013-03-28 00:39:00,32.0,25.3,30.39,WSW,256,0.0,0.0,76,0.00,,,0.00,VWS V14.01,2013-03-28 05:39:00,
2013-03-28 00:40:00,31.9,25.5,30.39,WSW,256,0.0,0.0,77,0.00,,CLR,0.00,VWS V14.01,2013-03-28 05:40:00,
2013-03-28 00:44:00,31.8,25.1,30.39,WSW,255,0.0,0.0,76,0.00,,,0.00,VWS V14.01,2013-03-28 05:44:00,
2013-03-28 00:49:00,31.8,25.1,30.39,WSW,255,0.0,0.0,76,0.00,,,0.00,VWS V14.01,2013-03-28 05:49:00,
2013-03-28 00:50:00,31.7,25.0,30.39,WSW,255,0.0,0.0,76,0.00,,CLR,0.00,VWS V14.01,2013-03-28 05:50:00,
2013-03-28 00:54:00,31.8,25.1,30.39,WSW,256,0.0,0.0,76,0.00,,,0.00,VWS V14.01,2013-03-28 05:54:00,
2013-03-28 01:00:00,31.7,25.0,30.39,WSW,256,0.0,0.0,76,0.00,,,0.00,VWS V14.01,2013-03-28 06:00:00,
2013-03-28 01:05:00,31.6,24.9,30.39,SSW,211,0.0,0.0,76,0.00,,,0.00,VWS V14.01,2013-03-28 06:05:00,
2013-03-28 01:10:00,31.5,24.8,30.39,West,280,0.0,0.0,76,0.00,,,0.00,VWS V14.01,2013-03-28 06:10:00,
2013-03-28 01:15:00,31.5,24.8,30.39,West,279,0.0,1.0,76,0.00,,,0.00,VWS V14.01,2013-03-28 06:15:00,
2013-03-28 01:20:00,31.4,24.7,30.39,West,279,0.0,1.0,76,0.00,,CLR,0.00,VWS V14.01,2013-03-28 06:20:00,
2013-03-28 01:21:00,31.5,24.8,30.39,West,279,0.0,1.0,76,0.00,,,0.00,VWS V14.01,2013-03-28 06:21:00,
2013-03-28 01:27:00,31.5,24.8,30.39,West,280,0.0,1.0,76,0.00,,,0.00,VWS V14.01,2013-03-28 06:27:00,
2013-03-28 01:30:00,31.5,24.8,30.39,West,279,0.0,1.0,76,0.00,,CLR,0.00,VWS V14.01,2013-03-28 06:30:00,
2013-03-28 01:32:00,31.6,24.6,30.39,West,279,0.0,0.0,75,0.00,,,0.00,VWS V14.01,2013-03-28 06:32:00,
2013-03-28 01:37:00,31.8,24.5,30.39,West,280,0.0,1.0,74,0.00,,,0.00,VWS V14.01,2013-03-28 06:37:00,
2013-03-28 01:40:00,31.8,24.5,30.39,West,280,0.0,1.0,74,0.00,,CLR,0.00,VWS V14.01,2013-03-28 06:40:00,
2013-03-28 01:42:00,31.8,24.5,30.39,West,280,0.0,0.0,74,0.00,,,0.00,VWS V14.01,2013-03-28 06:42:00,
2013-03-28 01:47:00,31.6,24.3,30.40,West,279,0.0,1.0,74,0.00,,,0.00,VWS V14.01,2013-03-28 06:47:00,
2013-03-28 01:50:00,31.5,24.2,30.40,West,279,0.0,1.0,74,0.00,,CLR,0.00,VWS V14.01,2013-03-28 06:50:00,
2013-03-28 01:53:00,31.4,24.1,30.40,West,280,0.0,0.0,74,0.00,,,0.00,VWS V14.01,2013-03-28 06:53:00,
2013-03-28 01:58:00,31.3,24.3,30.40,West,280,0.0,0.0,75,0.00,,,0.00,VWS V14.01,2013-03-28 06:58:00,
2013-03-28 02:00:00,31.3,24.3,30.40,West,279,0.0,0.0,75,0.00,,CLR,0.00,VWS V14.01,2013-03-28 07:00:00,
2013-03-28 02:03:00,31.2,24.2,30.40,West,280,0.0,0.0,75,0.00,,,0.00,VWS V14.01,2013-03-28 07:03:00,
2013-03-28 02:08:00,30.9,23.9,30.40,West,280,0.0,0.0,75,0.00,,,0.00,VWS V14.01,2013-03-28 07:08:00,
2013-03-28 02:10:00,30.8,23.8,30.39,West,279,0.0,0.0,75,0.00,,CLR,0.00,VWS V14.01,2013-03-28 07:10:00,
2013-03-28 02:13:00,30.6,24.0,30.39,West,280,0.0,0.0,76,0.00,,,0.00,VWS V14.01,2013-03-28 07:13:00,
2013-03-28 02:18:00,30.6,24.0,30.40,West,280,0.0,0.0,76,0.00,,,0.00,VWS V14.01,2013-03-28 07:18:00,
2013-03-28 02:20:00,30.6,23.6,30.39,West,279,0.0,0.0,75,0.00,,CLR,0.00,VWS V14.01,2013-03-28 07:20:00,
2013-03-28 02:23:00,30.5,23.5,30.39,West,280,0.0,0.0,75,0.00,,,0.00,VWS V14.01,2013-03-28 07:23:00,
2013-03-28 02:28:00,30.3,23.7,30.39,West,280,0.0,0.0,76,0.00,,,0.00,VWS V14.01,2013-03-28 07:28:00,
2013-03-28 02:30:00,30.3,23.7,30.39,West,280,0.0,0.0,76,0.00,,CLR,0.00,VWS V14.01,2013-03-28 07:30:00,
2013-03-28 02:33:00,30.5,23.9,30.39,West,280,0.0,0.0,76,0.00,,,0.00,VWS V14.01,2013-03-28 07:33:00,
2013-03-28 02:38:00,30.7,24.0,30.39,West,280,0.0,0.0,76,0.00,,,0.00,VWS V14.01,2013-03-28 07:38:00,
2013-03-28 02:40:00,30.7,24.0,30.39,West,280,0.0,0.0,76,0.00,,CLR,0.00,VWS V14.01,2013-03-28 07:40:00,
2013-03-28 02:43:00,30.7,23.7,30.39,West,280,0.0,0.0,75,0.00,,,0.00,VWS V14.01,2013-03-28 07:43:00,
2013-03-28 02:48:00,30.7,23.7,30.39,West,279,0.0,0.0,75,0.00,,,0.00,VWS V14.01,2013-03-28 07:48:00,
2013-03-28 02:50:00,30.7,23.7,30.39,West,279,0.0,0.0,75,0.00,,CLR,0.00,VWS V14.01,2013-03-28 07:50:00,
2013-03-28 02:54:00,30.8,23.8,30.39,West,280,0.0,0.0,75,0.00,,,0.00,VWS V14.01,2013-03-28 07:54:00,
2013-03-28 02:59:00,30.9,23.6,30.39,West,280,0.0,0.0,74,0.00,,,0.00,VWS V14.01,2013-03-28 07:59:00,
2013-03-28 03:00:00,30.9,23.6,30.39,West,279,0.0,0.0,74,0.00,,CLR,0.00,VWS V14.01,2013-03-28 08:00:00,
2013-03-28 03:04:00,30.8,23.5,30.39,West,280,0.0,0.0,74,0.00,,,0.00,VWS V14.01,2013-03-28 08:04:00,
2013-03-28 03:09:00,30.5,23.2,30.39,West,280,0.0,0.0,74,0.00,,,0.00,VWS V14.01,2013-03-28 08:09:00,
2013-03-28 03:10:00,30.5,23.2,30.39,West,280,0.0,0.0,74,0.00,,CLR,0.00,VWS V14.01,2013-03-28 08:10:00,
2013-03-28 03:14:00,30.3,23.3,30.39,West,280,0.0,0.0,75,0.00,,,0.00,VWS V14.01,2013-03-28 08:14:00,
2013-03-28 03:19:00,30.3,23.3,30.39,West,279,0.0,0.0,75,0.00,,,0.00,VWS V14.01,2013-03-28 08:19:00,
2013-03-28 03:20:00,30.3,23.3,30.39,West,279,0.0,0.0,75,0.00,,CLR,0.00,VWS V14.01,2013-03-28 08:20:00,
2013-03-28 03:24:00,30.4,23.4,30.39,West,280,0.0,0.0,75,0.00,,,0.00,VWS V14.01,2013-03-28 08:24:00,
2013-03-28 03:29:00,30.7,23.7,30.39,West,280,0.0,0.0,75,0.00,,,0.00,VWS V14.01,2013-03-28 08:29:00,
2013-03-28 03:30:00,30.6,23.6,30.39,West,280,0.0,0.0,75,0.00,,CLR,0.00,VWS V14.01,2013-03-28 08:30:00,
2013-03-28 03:35:00,30.9,23.6,30.39,West,280,0.0,0.0,74,0.00,,,0.00,VWS V14.01,2013-03-28 08:35:00,
2013-03-28 03:40:00,30.9,23.6,30.39,West,280,0.0,0.0,74,0.00,,,0.00,VWS V14.01,2013-03-28 08:40:00,
2013-03-28 03:45:00,30.8,23.5,30.39,West,280,0.0,0.0,74,0.00,,,0.00,VWS V14.01,2013-03-28 08:45:00,
2013-03-28 03:50:00,30.8,23.8,30.39,West,280,0.0,0.0,75,0.00,,,0.00,VWS V14.01,2013-03-28 08:50:00,
2013-03-28 03:55:00,30.7,23.7,30.39,West,280,0.0,0.0,75,0.00,,,0.00,VWS V14.01,2013-03-28 08:55:00,
2013-03-28 04:00:00,30.6,23.6,30.39,West,280,0.0,0.0,75,0.00,,,0.00,VWS V14.01,2013-03-28 09:00:00,
2013-03-28 04:06:00,30.5,23.5,30.39,West,280,0.0,0.0,75,0.00,,,0.00,VWS V14.01,2013-03-28 09:06:00,
2013-03-28 04:10:00,30.4,23.4,30.39,West,280,0.0,0.0,75,0.00,,CLR,0.00,VWS V14.01,2013-03-28 09:10:00,
2013-03-28 04:11:00,30.3,23.3,30.39,West,280,0.0,0.0,75,0.00,,,0.00,VWS V14.01,2013-03-28 09:11:00,
2013-03-28 04:16:00,30.0,23.0,30.39,West,280,0.0,0.0,75,0.00,,,0.00,VWS V14.01,2013-03-28 09:16:00,
2013-03-28 04:20:00,29.9,23.0,30.39,West,280,0.0,0.0,75,0.00,,CLR,0.00,VWS V14.01,2013-03-28 09:20:00,
2013-03-28 04:21:00,29.8,23.2,30.39,West,280,0.0,0.0,76,0.00,,,0.00,VWS V14.01,2013-03-28 09:21:00,
2013-03-28 04:26:00,29.7,23.4,30.39,West,280,0.0,0.0,77,0.00,,,0.00,VWS V14.01,2013-03-28 09:26:00,
2013-03-28 04:30:00,29.7,23.1,30.39,West,280,0.0,0.0,76,0.00,,CLR,0.00,VWS V14.01,2013-03-28 09:30:00,
2013-03-28 04:32:00,29.6,23.0,30.39,West,280,0.0,0.0,76,0.00,,,0.00,VWS V14.01,2013-03-28 09:32:00,
2013-03-28 04:37:00,29.6,23.0,30.39,West,280,0.0,0.0,76,0.00,,,0.00,VWS V14.01,2013-03-28 09:37:00,
2013-03-28 04:40:00,29.5,22.9,30.39,West,279,0.0,0.0,76,0.00,,CLR,0.00,VWS V14.01,2013-03-28 09:40:00,
2013-03-28 04:42:00,29.3,22.7,30.39,West,280,0.0,0.0,76,0.00,,,0.00,VWS V14.01,2013-03-28 09:42:00,
2013-03-28 04:47:00,29.1,22.5,30.39,West,280,0.0,0.0,76,0.00,,,0.00,VWS V14.01,2013-03-28 09:47:00,
2013-03-28 04:50:00,29.0,22.7,30.39,West,279,0.0,0.0,77,0.00,,CLR,0.00,VWS V14.01,2013-03-28 09:50:00,
2013-03-28 04:52:00,29.1,23.1,30.39,West,280,0.0,0.0,78,0.00,,,0.00,VWS V14.01,2013-03-28 09:52:00,
2013-03-28 04:57:00,29.1,22.8,30.39,West,280,0.0,0.0,77,0.00,,,0.00,VWS V14.01,2013-03-28 09:57:00,
2013-03-28 05:00:00,29.1,22.8,30.39,West,280,0.0,0.0,77,0.00,,CLR,0.00,VWS V14.01,2013-03-28 10:00:00,
2013-03-28 05:02:00,28.9,22.6,30.39,West,280,0.0,0.0,77,0.00,,,0.00,VWS V14.01,2013-03-28 10:02:00,
2013-03-28 05:08:00,28.7,22.7,30.39,West,280,0.0,0.0,78,0.00,,,0.00,VWS V14.01,2013-03-28 10:08:00,
2013-03-28 05:10:00,28.7,22.7,30.39,West,280,0.0,0.0,78,0.00,,CLR,0.00,VWS V14.01,2013-03-28 10:10:00,
2013-03-28 05:13:00,29.0,23.0,30.39,West,279,0.0,0.0,78,0.00,,,0.00,VWS V14.01,2013-03-28 10:13:00,
2013-03-28 05:18:00,29.2,23.2,30.39,West,280,0.0,0.0,78,0.00,,,0.00,VWS V14.01,2013-03-28 10:18:00,
2013-03-28 05:20:00,29.2,23.2,30.39,West,279,0.0,0.0,78,0.00,,CLR,0.00,VWS V14.01,2013-03-28 10:20:00,
2013-03-28 05:23:00,29.2,23.2,30.39,West,280,0.0,0.0,78,0.00,,,0.00,VWS V14.01,2013-03-28 10:23:00,
2013-03-28 05:28:00,28.9,22.6,30.40,West,280,0.0,0.0,77,0.00,,,0.00,VWS V14.01,2013-03-28 10:28:00,
2013-03-28 05:30:00,28.9,22.6,30.39,West,280,0.0,0.0,77,0.00,,CLR,0.00,VWS V14.01,2013-03-28 10:30:00,
2013-03-28 05:33:00,28.9,22.9,30.40,West,280,0.0,0.0,78,0.00,,,0.00,VWS V14.01,2013-03-28 10:33:00,
2013-03-28 05:39:00,29.3,23.6,30.40,ENE,62,1.0,1.0,79,0.00,,,0.00,VWS V14.01,2013-03-28 10:39:00,
2013-03-28 05:40:00,29.3,23.6,30.40,West,280,1.0,1.0,79,0.00,,CLR,0.00,VWS V14.01,2013-03-28 10:40:00,
2013-03-28 05:44:00,29.8,23.8,30.40,ENE,62,0.0,1.0,78,0.00,,,0.00,VWS V14.01,2013-03-28 10:44:00,
2013-03-28 05:49:00,29.9,23.6,30.40,ENE,63,0.0,0.0,77,0.00,,,0.00,VWS V14.01,2013-03-28 10:49:00,
2013-03-28 05:50:00,29.9,23.6,30.40,ENE,62,0.0,1.0,77,0.00,,CLR,0.00,VWS V14.01,2013-03-28 10:50:00,
2013-03-28 05:54:00,29.6,23.0,30.40,ENE,63,0.0,0.0,76,0.00,,,0.00,VWS V14.01,2013-03-28 10:54:00,
2013-03-28 05:59:00,29.2,23.2,30.40,ENE,61,0.0,0.0,78,0.00,,,0.00,VWS V14.01,2013-03-28 10:59:00,
2013-03-28 06:00:00,29.3,23.0,30.40,ENE,62,0.0,0.0,77,0.00,,CLR,0.00,VWS V14.01,2013-03-28 11:00:00,
2013-03-28 06:04:00,29.0,23.0,30.40,ENE,61,0.0,0.0,78,0.00,,,0.00,VWS V14.01,2013-03-28 11:04:00,
2013-03-28 06:10:00,28.9,23.2,30.40,ENE,62,0.0,0.0,79,0.00,,,0.00,VWS V14.01,2013-03-28 11:10:00,
2013-03-28 06:15:00,29.1,23.7,30.40,ENE,62,0.0,0.0,80,0.00,,,0.00,VWS V14.01,2013-03-28 11:15:00,
2013-03-28 06:20:00,29.3,23.6,30.40,ENE,62,0.0,0.0,79,0.00,,,0.00,VWS V14.01,2013-03-28 11:20:00,
2013-03-28 06:25:00,29.4,23.7,30.40,ENE,63,0.0,1.0,79,0.00,,,0.00,VWS V14.01,2013-03-28 11:25:00,
2013-03-28 06:30:00,29.5,23.8,30.40,ENE,63,0.0,0.0,79,0.00,,,0.00,VWS V14.01,2013-03-28 11:30:00,
2013-03-28 06:35:00,29.2,23.5,30.41,ENE,62,0.0,0.0,79,0.00,,,0.00,VWS V14.01,2013-03-28 11:35:00,
2013-03-28 06:40:00,29.0,23.3,30.40,ENE,63,0.0,0.0,79,0.00,,,0.00,VWS V14.01,2013-03-28 11:40:00,
2013-03-28 06:45:00,29.1,23.7,30.41,ENE,63,0.0,0.0,80,0.00,,,0.00,VWS V14.01,2013-03-28 11:45:00,
2013-03-28 06:50:00,29.2,23.8,30.41,ENE,60,0.0,0.0,80,0.00,,CLR,0.00,VWS V14.01,2013-03-28 11:50:00,
2013-03-28 06:51:00,29.3,23.9,30.41,ENE,63,0.0,0.0,80,0.00,,,0.00,VWS V14.01,2013-03-28 11:51:00,
2013-03-28 06:56:00,29.4,24.0,30.41,ENE,62,0.0,0.0,80,0.00,,,0.00,VWS V14.01,2013-03-28 11:56:00,
2013-03-28 07:00:00,29.4,23.7,30.40,ENE,63,0.0,0.0,79,0.00,,CLR,0.00,VWS V14.01,2013-03-28 12:00:00,
2013-03-28 07:01:00,29.4,23.7,30.40,ENE,62,0.0,0.0,79,0.00,,,0.00,VWS V14.01,2013-03-28 12:01:00,
2013-03-28 07:07:00,29.6,23.9,30.41,ENE,62,0.0,1.0,79,0.00,,,0.00,VWS V14.01,2013-03-28 12:07:00,
2013-03-28 07:10:00,29.7,24.0,30.41,ENE,62,0.0,1.0,79,0.00,,CLR,0.00,VWS V14.01,2013-03-28 12:10:00,
2013-03-28 07:12:00,29.8,24.1,30.41,ENE,63,0.0,0.0,79,0.00,,,0.00,VWS V14.01,2013-03-28 12:12:00,
2013-03-28 07:17:00,29.6,23.6,30.41,ENE,62,0.0,0.0,78,0.00,,,0.00,VWS V14.01,2013-03-28 12:17:00,
2013-03-28 07:20:00,29.6,23.6,30.41,ENE,62,0.0,0.0,78,0.00,,CLR,0.00,VWS V14.01,2013-03-28 12:20:00,
2013-03-28 07:22:00,29.6,23.6,30.41,ENE,62,0.0,0.0,78,0.00,,,0.00,VWS V14.01,2013-03-28 12:22:00,
2013-03-28 07:27:00,29.8,24.1,30.41,ENE,62,0.0,0.0,79,0.00,,,0.00,VWS V14.01,2013-03-28 12:27:00,
2013-03-28 07:30:00,30.0,24.3,30.41,ENE,63,0.0,0.0,79,0.00,,CLR,0.00,VWS V14.01,2013-03-28 12:30:00,
2013-03-28 07:32:00,30.6,24.9,30.41,ENE,63,0.0,0.0,79,0.00,,,0.00,VWS V14.01,2013-03-28 12:32:00,
2013-03-28 07:37:00,31.9,25.5,30.41,ENE,62,0.0,1.0,77,0.00,,,0.00,VWS V14.01,2013-03-28 12:37:00,
2013-03-28 07:40:00,32.1,25.7,30.41,ENE,62,0.0,1.0,77,0.00,,CLR,0.00,VWS V14.01,2013-03-28 12:40:00,
2013-03-28 07:43:00,33.0,26.0,30.41,ENE,63,0.0,0.0,75,0.00,,,0.00,VWS V14.01,2013-03-28 12:43:00,
2013-03-28 07:48:00,34.1,26.7,30.41,ENE,63,0.0,0.0,74,0.00,,,0.00,VWS V14.01,2013-03-28 12:48:00,
2013-03-28 07:50:00,34.3,26.6,30.41,ENE,63,0.0,0.0,73,0.00,,CLR,0.00,VWS V14.01,2013-03-28 12:50:00,
2013-03-28 07:53:00,34.7,26.6,30.41,ENE,63,0.0,0.0,72,0.00,,,0.00,VWS V14.01,2013-03-28 12:53:00,
2013-03-28 07:58:00,34.6,26.9,30.42,ENE,62,0.0,0.0,73,0.00,,,0.00,VWS V14.01,2013-03-28 12:58:00,
2013-03-28 08:00:00,34.5,26.8,30.42,ENE,62,0.0,0.0,73,0.00,,CLR,0.00,VWS V14.01,2013-03-28 13:00:00,
2013-03-28 08:03:00,34.5,26.8,30.42,ENE,63,0.0,0.0,73,0.00,,,0.00,VWS V14.01,2013-03-28 13:03:00,
2013-03-28 08:08:00,34.7,27.3,30.42,ENE,62,0.0,0.0,74,0.00,,,0.00,VWS V14.01,2013-03-28 13:08:00,
2013-03-28 08:10:00,34.7,27.3,30.42,ENE,62,0.0,0.0,74,0.00,,CLR,0.00,VWS V14.01,2013-03-28 13:10:00,
2013-03-28 08:14:00,35.5,27.4,30.42,ENE,63,0.0,0.0,72,0.00,,,0.00,VWS V14.01,2013-03-28 13:14:00,
2013-03-28 08:19:00,36.8,28.3,30.42,ENE,62,0.0,0.0,71,0.00,,,0.00,VWS V14.01,2013-03-28 13:19:00,
2013-03-28 08:20:00,36.7,28.2,30.42,ENE,63,0.0,0.0,71,0.00,,CLR,0.00,VWS V14.01,2013-03-28 13:20:00,
2013-03-28 08:24:00,38.3,28.3,30.42,ENE,62,0.0,0.0,67,0.00,,,0.00,VWS V14.01,2013-03-28 13:24:00,
2013-03-28 08:29:00,37.8,27.5,30.42,North,359,1.0,1.0,66,0.00,,,0.00,VWS V14.01,2013-03-28 13:29:00,
2013-03-28 08:30:00,37.9,27.2,30.42,ENE,62,0.0,1.0,65,0.00,,CLR,0.00,VWS V14.01,2013-03-28 13:30:00,
2013-03-28 08:34:00,36.9,26.2,30.42,North,359,0.0,1.0,65,0.00,,,0.00,VWS V14.01,2013-03-28 13:34:00,
2013-03-28 08:39:00,36.5,26.2,30.42,North,360,0.0,0.0,66,0.00,,,0.00,VWS V14.01,2013-03-28 13:39:00,
2013-03-28 08:40:00,36.5,26.2,30.42,North,360,0.0,1.0,66,0.00,,CLR,0.00,VWS V14.01,2013-03-28 13:40:00,
2013-03-28 08:45:00,36.7,26.8,30.42,North,360,0.0,0.0,67,0.00,,,0.00,VWS V14.01,2013-03-28 13:45:00,
2013-03-28 08:50:00,37.3,27.7,30.42,North,359,0.0,0.0,68,0.00,,,0.00,VWS V14.01,2013-03-28 13:50:00,
2013-03-28 08:55:00,38.4,28.4,30.42,North,4,0.0,0.0,67,0.00,,,0.00,VWS V14.01,2013-03-28 13:55:00,
2013-03-28 09:00:00,39.5,29.1,30.42,SW,216,0.0,0.0,66,0.00,,,0.00,VWS V14.01,2013-03-28 14:00:00,
2013-03-28 09:05:00,40.3,29.1,30.42,SW,229,1.0,1.0,64,0.00,,,0.00,VWS V14.01,2013-03-28 14:05:00,
2013-03-28 09:10:00,39.9,28.3,30.42,WSW,249,0.0,2.0,63,0.00,,CLR,0.00,VWS V14.01,2013-03-28 14:10:00,
2013-03-28 09:11:00,39.8,28.6,30.42,WSW,249,0.0,1.0,64,0.00,,,0.00,VWS V14.01,2013-03-28 14:11:00,
2013-03-28 09:16:00,39.7,28.1,30.42,WSW,249,1.0,1.0,63,0.00,,,0.00,VWS V14.01,2013-03-28 14:16:00,
2013-03-28 09:20:00,39.7,28.5,30.42,WSW,249,1.0,1.0,64,0.00,,CLR,0.00,VWS V14.01,2013-03-28 14:20:00,
2013-03-28 09:21:00,39.6,28.4,30.42,WSW,249,0.0,1.0,64,0.00,,,0.00,VWS V14.01,2013-03-28 14:21:00,
2013-03-28 09:27:00,39.7,28.9,30.42,West,259,1.0,2.0,65,0.00,,,0.00,VWS V14.01,2013-03-28 14:27:00,
2013-03-28 09:30:00,39.6,28.8,30.42,West,259,1.0,2.0,65,0.00,,CLR,0.00,VWS V14.01,2013-03-28 14:30:00,
2013-03-28 09:32:00,39.6,28.8,30.42,WNW,301,1.0,2.0,65,0.00,,,0.00,VWS V14.01,2013-03-28 14:32:00,
2013-03-28 09:37:00,39.9,29.5,30.42,NW,318,0.0,2.0,66,0.00,,,0.00,VWS V14.01,2013-03-28 14:37:00,
2013-03-28 09:40:00,40.0,29.6,30.42,NW,318,1.0,2.0,66,0.00,,CLR,0.00,VWS V14.01,2013-03-28 14:40:00,
2013-03-28 09:42:00,40.4,29.6,30.42,NW,305,0.0,2.0,65,0.00,,,0.00,VWS V14.01,2013-03-28 14:42:00,
2013-03-28 09:47:00,41.0,29.0,30.42,West,260,0.0,2.0,62,0.00,,,0.00,VWS V14.01,2013-03-28 14:47:00,
2013-03-28 09:50:00,41.2,29.6,30.42,West,260,0.0,2.0,63,0.00,,CLR,0.00,VWS V14.01,2013-03-28 14:50:00,
2013-03-28 09:52:00,41.6,28.8,30.42,NW,309,0.0,1.0,60,0.00,,,0.00,VWS V14.01,2013-03-28 14:52:00,
2013-03-28 09:57:00,42.0,29.1,30.42,WNW,290,0.0,2.0,60,0.00,,,0.00,VWS V14.01,2013-03-28 14:57:00,
2013-03-28 10:00:00,42.2,28.9,30.42,WNW,291,1.0,2.0,59,0.00,,CLR,0.00,VWS V14.01,2013-03-28 15:00:00,
2013-03-28 10:02:00,42.4,28.7,30.42,WNW,285,1.0,2.0,58,0.00,,,0.00,VWS V14.01,2013-03-28 15:02:00,
2013-03-28 10:08:00,42.4,27.8,30.42,West,273,1.0,2.0,56,0.00,,,0.00,VWS V14.01,2013-03-28 15:08:00,
2013-03-28 10:10:00,42.4,27.4,30.42,West,273,1.0,2.0,55,0.00,,CLR,0.00,VWS V14.01,2013-03-28 15:10:00,
2013-03-28 10:13:00,42.5,28.4,30.42,ENE,70,0.0,3.0,57,0.00,,,0.00,VWS V14.01,2013-03-28 15:13:00,
2013-03-28 10:18:00,42.7,28.1,30.42,NNW,330,1.0,3.0,56,0.00,,,0.00,VWS V14.01,2013-03-28 15:18:00,
2013-03-28 10:20:00,42.7,28.5,30.42,NNW,331,1.0,3.0,57,0.00,,CLR,0.00,VWS V14.01,2013-03-28 15:20:00,
2013-03-28 10:23:00,43.2,29.0,30.42,SE,139,2.0,4.0,57,0.00,,,0.00,VWS V14.01,2013-03-28 15:23:00,
2013-03-28 10:28:00,43.4,27.9,30.42,NW,319,1.0,4.0,54,0.00,,,0.00,VWS V14.01,2013-03-28 15:28:00,
2013-03-28 10:30:00,43.4,27.9,30.42,NW,320,1.0,4.0,54,0.00,,CLR,0.00,VWS V14.01,2013-03-28 15:30:00,
2013-03-28 10:33:00,43.6,28.1,30.42,WSW,238,3.0,4.0,54,0.00,,,0.00,VWS V14.01,2013-03-28 15:33:00,
2013-03-28 10:38:00,43.7,28.2,30.42,West,271,1.0,4.0,54,0.00,,,0.00,VWS V14.01,2013-03-28 15:38:00,
2013-03-28 10:40:00,43.7,28.2,30.42,West,271,1.0,4.0,54,0.00,,CLR,0.00,VWS V14.01,2013-03-28 15:40:00,
2013-03-28 10:43:00,43.8,27.3,30.42,West,263,2.0,4.0,52,0.00,,,0.00,VWS V14.01,2013-03-28 15:43:00,
2013-03-28 10:48:00,43.7,27.7,30.42,WSW,238,1.0,4.0,53,0.00,,,0.00,VWS V14.01,2013-03-28 15:48:00,
2013-03-28 10:50:00,43.7,27.7,30.42,WSW,238,1.0,4.0,53,0.00,,CLR,0.00,VWS V14.01,2013-03-28 15:50:00,
2013-03-28 10:54:00,44.1,28.1,30.42,NW,323,1.0,4.0,53,0.00,,,0.00,VWS V14.01,2013-03-28 15:54:00,
2013-03-28 10:59:00,44.2,28.2,30.42,NNE,15,3.0,3.0,53,0.00,,,0.00,VWS V14.01,2013-03-28 15:59:00,
2013-03-28 11:00:00,44.1,28.1,30.42,North,1,2.0,4.0,53,0.00,,CLR,0.00,VWS V14.01,2013-03-28 16:00:00,
2013-03-28 11:04:00,44.4,28.4,30.42,WNW,282,1.0,3.0,53,0.00,,,0.00,VWS V14.01,2013-03-28 16:04:00,
2013-03-28 11:09:00,44.4,27.9,30.42,WSW,249,1.0,3.0,52,0.00,,,0.00,VWS V14.01,2013-03-28 16:09:00,
2013-03-28 11:10:00,44.4,27.9,30.42,West,280,3.0,5.0,52,0.00,,CLR,0.00,VWS V14.01,2013-03-28 16:10:00,
2013-03-28 11:15:00,44.5,28.5,30.42,SW,218,2.0,3.0,53,0.00,,,0.00,VWS V14.01,2013-03-28 16:15:00,
2013-03-28 11:20:00,44.8,29.2,30.42,West,260,0.0,4.0,54,0.00,,,0.00,VWS V14.01,2013-03-28 16:20:00,
2013-03-28 11:25:00,45.0,28.0,30.42,North,354,3.0,4.0,51,0.00,,,0.00,VWS V14.01,2013-03-28 16:25:00,
2013-03-28 11:30:00,45.0,28.0,30.42,WNW,291,2.0,2.0,51,0.00,,,0.00,VWS V14.01,2013-03-28 16:30:00,
2013-03-28 11:35:00,45.1,29.0,30.42,SW,221,1.0,4.0,53,0.00,,,0.00,VWS V14.01,2013-03-28 16:35:00,
2013-03-28 11:40:00,45.5,28.9,30.42,SE,142,2.0,5.0,52,0.00,,CLR,0.00,VWS V14.01,2013-03-28 16:40:00,
2013-03-28 11:41:00,45.3,28.7,30.42,SSE,152,2.0,4.0,52,0.00,,,0.00,VWS V14.01,2013-03-28 16:41:00,
2013-03-28 11:46:00,45.6,29.9,30.42,NW,304,2.0,4.0,54,0.00,,,0.00,VWS V14.01,2013-03-28 16:46:00,
2013-03-28 11:50:00,45.6,28.0,30.42,WSW,248,0.0,5.0,50,0.00,,CLR,0.00,VWS V14.01,2013-03-28 16:50:00,
2013-03-28 11:51:00,45.7,29.1,30.42,SSE,160,4.0,4.0,52,0.00,,,0.00,VWS V14.01,2013-03-28 16:51:00,
2013-03-28 11:56:00,45.7,29.1,30.42,South,170,3.0,4.0,52,0.00,,,0.00,VWS V14.01,2013-03-28 16:56:00,
2013-03-28 12:00:00,46.3,31.9,30.42,SSW,204,0.0,6.0,57,0.00,,CLR,0.00,VWS V14.01,2013-03-28 17:00:00,
2013-03-28 12:01:00,46.9,29.7,30.41,South,183,2.0,6.0,51,0.00,,,0.00,VWS V14.01,2013-03-28 17:01:00,
2013-03-28 12:07:00,47.4,30.2,30.42,SW,218,4.0,6.0,51,0.00,,,0.00,VWS V14.01,2013-03-28 17:07:00,
2013-03-28 12:10:00,47.3,29.1,30.41,SSW,208,2.0,6.0,49,0.00,,CLR,0.00,VWS V14.01,2013-03-28 17:10:00,
2013-03-28 12:12:00,47.1,29.9,30.42,WNW,293,2.0,6.0,51,0.00,,,0.00,VWS V14.01,2013-03-28 17:12:00,
2013-03-28 12:17:00,46.3,27.7,30.41,NW,326,0.0,6.0,48,0.00,,,0.00,VWS V14.01,2013-03-28 17:17:00,
2013-03-28 12:20:00,46.2,28.1,30.41,North,8,2.0,6.0,49,0.00,,CLR,0.00,VWS V14.01,2013-03-28 17:20:00,
2013-03-28 12:22:00,46.2,28.1,30.41,NNE,25,3.0,4.0,49,0.00,,,0.00,VWS V14.01,2013-03-28 17:22:00,
2013-03-28 12:27:00,46.3,28.2,30.41,NW,325,2.0,4.0,49,0.00,,,0.00,VWS V14.01,2013-03-28 17:27:00,
2013-03-28 12:30:00,46.5,28.9,30.41,WNW,296,1.0,4.0,50,0.00,,CLR,0.00,VWS V14.01,2013-03-28 17:30:00,
2013-03-28 12:32:00,47.1,28.9,30.40,WNW,294,0.0,3.0,49,0.00,,,0.00,VWS V14.01,2013-03-28 17:32:00,
2013-03-28 12:37:00,48.0,31.2,30.40,SE,134,2.0,3.0,52,0.00,,,0.00,VWS V14.01,2013-03-28 17:37:00,
2013-03-28 12:40:00,48.2,30.9,30.40,WNW,294,3.0,3.0,51,0.00,,CLR,0.00,VWS V14.01,2013-03-28 17:40:00,
2013-03-28 12:43:00,48.2,28.9,30.40,SSE,153,0.0,3.0,47,0.00,,,0.00,VWS V14.01,2013-03-28 17:43:00,
2013-03-28 12:48:00,48.5,30.2,30.40,SSW,211,1.0,3.0,49,0.00,,,0.00,VWS V14.01,2013-03-28 17:48:00,
2013-03-28 12:50:00,48.5,30.2,30.40,WSW,245,3.0,3.0,49,0.00,,CLR,0.00,VWS V14.01,2013-03-28 17:50:00,
2013-03-28 12:53:00,48.4,28.6,30.40,WSW,255,2.0,7.0,46,0.00,,,0.00,VWS V14.01,2013-03-28 17:53:00,
2013-03-28 12:58:00,48.6,29.3,30.39,SSE,165,2.0,7.0,47,0.00,,,0.00,VWS V14.01,2013-03-28 17:58:00,
2013-03-28 13:00:00,48.6,29.3,30.39,SW,214,1.0,7.0,47,0.00,,CLR,0.00,VWS V14.01,2013-03-28 18:00:00,
2013-03-28 13:03:00,48.6,29.8,30.39,South,179,5.0,6.0,48,0.00,,,0.00,VWS V14.01,2013-03-28 18:03:00,
2013-03-28 13:08:00,48.7,29.4,30.39,SW,221,0.0,7.0,47,0.00,,,0.00,VWS V14.01,2013-03-28 18:08:00,
2013-03-28 13:10:00,48.7,29.4,30.39,SW,221,0.0,7.0,47,0.00,,CLR,0.00,VWS V14.01,2013-03-28 18:10:00,
2013-03-28 13:13:00,49.1,30.3,30.39,SW,226,3.0,4.0,48,0.00,,,0.00,VWS V14.01,2013-03-28 18:13:00,
2013-03-28 13:18:00,49.0,29.1,30.39,SSW,212,5.0,7.0,46,0.00,,,0.00,VWS V14.01,2013-03-28 18:18:00,
2013-03-28 13:20:00,49.0,29.1,30.39,SSW,212,5.0,7.0,46,0.00,,CLR,0.00,VWS V14.01,2013-03-28 18:20:00,
2013-03-28 13:23:00,48.7,29.4,30.39,East,95,1.0,5.0,47,0.00,,,0.00,VWS V14.01,2013-03-28 18:23:00,
2013-03-28 13:29:00,48.9,31.6,30.39,SSE,156,4.0,5.0,51,0.00,,,0.00,VWS V14.01,2013-03-28 18:29:00,
2013-03-28 13:30:00,48.9,31.6,30.39,SSE,159,3.0,5.0,51,0.00,,CLR,0.00,VWS V14.01,2013-03-28 18:30:00,
2013-03-28 13:34:00,48.9,31.1,30.38,SSW,195,5.0,5.0,50,0.00,,,0.00,VWS V14.01,2013-03-28 18:34:00,
2013-03-28 13:39:00,49.1,29.8,30.38,SW,236,2.0,5.0,47,0.00,,,0.00,VWS V14.01,2013-03-28 18:39:00,
2013-03-28 13:40:00,49.2,30.4,30.38,SW,231,5.0,8.0,48,0.00,,CLR,0.00,VWS V14.01,2013-03-28 18:40:00,
2013-03-28 13:44:00,49.2,30.4,30.38,SSW,193,3.0,7.0,48,0.00,,,0.00,VWS V14.01,2013-03-28 18:44:00,
2013-03-28 13:49:00,49.0,29.7,30.38,SW,224,1.0,6.0,47,0.00,,,0.00,VWS V14.01,2013-03-28 18:49:00,
2013-03-28 13:50:00,49.1,30.3,30.38,SSE,153,6.0,7.0,48,0.00,,CLR,0.00,VWS V14.01,2013-03-28 18:50:00,
2013-03-28 13:54:00,49.3,31.5,30.38,WSW,257,2.0,6.0,50,0.00,,,0.00,VWS V14.01,2013-03-28 18:54:00,
2013-03-28 13:59:00,49.3,30.5,30.38,SW,236,3.0,8.0,48,0.00,,,0.00,VWS V14.01,2013-03-28 18:59:00,
2013-03-28 14:00:00,49.3,32.0,30.38,SE,139,4.0,6.0,51,0.00,,CLR,0.00,VWS V14.01,2013-03-28 19:00:00,
2013-03-28 14:05:00,49.2,30.4,30.37,ENE,67,2.0,8.0,48,0.00,,,0.00,VWS V14.01,2013-03-28 19:05:00,
2013-03-28 14:10:00,49.3,31.5,30.37,WSW,252,2.0,4.0,50,0.00,,,0.00,VWS V14.01,2013-03-28 19:10:00,
2013-03-28 14:15:00,49.7,32.8,30.37,SSW,212,3.0,4.0,52,0.00,,,0.00,VWS V14.01,2013-03-28 19:15:00,
2013-03-28 14:20:00,49.7,31.3,30.37,SW,224,2.0,5.0,49,0.00,,,0.00,VWS V14.01,2013-03-28 19:20:00,
2013-03-28 14:25:00,50.0,32.6,30.36,SSW,195,3.0,6.0,51,0.00,,,0.00,VWS V14.01,2013-03-28 19:25:00,
2013-03-28 14:30:00,49.9,31.0,30.36,SSW,201,4.0,8.0,48,0.00,,CLR,0.00,VWS V14.01,2013-03-28 19:30:00,
2013-03-28 14:31:00,49.9,31.5,30.36,ESE,116,5.0,6.0,49,0.00,,,0.00,VWS V14.01,2013-03-28 19:31:00,
2013-03-28 14:36:00,49.7,31.8,30.36,SSW,204,5.0,9.0,50,0.00,,,0.00,VWS V14.01,2013-03-28 19:36:00,
2013-03-28 14:40:00,49.7,31.3,30.36,SE,140,3.0,9.0,49,0.00,,CLR,0.00,VWS V14.01,2013-03-28 19:40:00,
2013-03-28 14:41:00,49.5,31.1,30.36,WSW,238,2.0,6.0,49,0.00,,,0.00,VWS V14.01,2013-03-28 19:41:00,
2013-03-28 14:46:00,50.2,32.8,30.36,SW,215,4.0,6.0,51,0.00,,,0.00,VWS V14.01,2013-03-28 19:46:00,
2013-03-28 14:50:00,50.5,33.1,30.35,South,188,2.0,6.0,51,0.00,,CLR,0.00,VWS V14.01,2013-03-28 19:50:00,
2013-03-28 14:51:00,50.9,31.4,30.35,West,266,2.0,5.0,47,0.00,,,0.00,VWS V14.01,2013-03-28 19:51:00,
2013-03-28 14:56:00,51.2,32.7,30.35,WSW,245,5.0,6.0,49,0.00,,,0.00,VWS V14.01,2013-03-28 19:56:00,
2013-03-28 15:00:00,50.9,30.9,30.35,WSW,255,3.0,6.0,46,0.00,,CLR,0.00,VWS V14.01,2013-03-28 20:00:00,
2013-03-28 15:02:00,50.6,31.1,30.35,SSE,152,2.0,5.0,47,0.00,,,0.00,VWS V14.01,2013-03-28 20:02:00,
2013-03-28 15:07:00,50.6,30.1,30.35,WSW,252,1.0,5.0,45,0.00,,,0.00,VWS V14.01,2013-03-28 20:07:00,
2013-03-28 15:10:00,50.4,30.4,30.35,West,273,2.0,5.0,46,0.00,,CLR,0.00,VWS V14.01,2013-03-28 20:10:00,
2013-03-28 15:13:00,50.4,31.0,30.35,West,259,2.0,7.0,47,0.00,,,0.00,VWS V14.01,2013-03-28 20:13:00,
2013-03-28 15:18:00,50.3,31.4,30.34,West,264,0.0,7.0,48,0.00,,,0.00,VWS V14.01,2013-03-28 20:18:00,
2013-03-28 15:20:00,50.3,31.4,30.34,WSW,257,0.0,7.0,48,0.00,,CLR,0.00,VWS V14.01,2013-03-28 20:20:00,
2013-03-28 15:23:00,50.6,30.6,30.34,SE,136,4.0,4.0,46,0.00,,,0.00,VWS V14.01,2013-03-28 20:23:00,
2013-03-28 15:28:00,50.6,31.1,30.34,WNW,295,3.0,4.0,47,0.00,,,0.00,VWS V14.01,2013-03-28 20:28:00,
2013-03-28 15:30:00,50.6,31.1,30.34,WNW,296,4.0,4.0,47,0.00,,CLR,0.00,VWS V14.01,2013-03-28 20:30:00,
2013-03-28 15:33:00,50.8,31.3,30.34,ESE,120,3.0,6.0,47,0.00,,,0.00,VWS V14.01,2013-03-28 20:33:00,
2013-03-28 15:38:00,50.6,30.6,30.34,WSW,238,3.0,6.0,46,0.00,,,0.00,VWS V14.01,2013-03-28 20:38:00,
2013-03-28 15:40:00,50.6,30.6,30.34,SW,231,3.0,6.0,46,0.00,,CLR,0.00,VWS V14.01,2013-03-28 20:40:00,
2013-03-28 15:43:00,50.8,31.8,30.34,SW,233,2.0,5.0,48,0.00,,,0.00,VWS V14.01,2013-03-28 20:43:00,
2013-03-28 15:49:00,50.9,31.9,30.34,West,266,1.0,3.0,48,0.00,,,0.00,VWS V14.01,2013-03-28 20:49:00,
2013-03-28 15:50:00,50.9,31.9,30.34,SW,224,2.0,5.0,48,0.00,,CLR,0.00,VWS V14.01,2013-03-28 20:50:00,
2013-03-28 15:54:00,50.7,31.2,30.33,South,191,2.0,6.0,47,0.00,,,0.00,VWS V14.01,2013-03-28 20:54:00,
2013-03-28 15:59:00,50.3,31.4,30.33,WSW,238,3.0,4.0,48,0.00,,,0.00,VWS V14.01,2013-03-28 20:59:00,
2013-03-28 16:00:00,50.4,31.5,30.33,WSW,241,2.0,7.0,48,0.00,,CLR,0.00,VWS V14.01,2013-03-28 21:00:00,
2013-03-28 16:04:00,50.2,31.3,30.33,SE,138,1.0,6.0,48,0.00,,,0.00,VWS V14.01,2013-03-28 21:04:00,
2013-03-28 16:10:00,50.0,32.1,30.33,SSW,204,4.0,6.0,50,0.00,,,0.00,VWS V14.01,2013-03-28 21:10:00,
2013-03-28 16:15:00,50.0,31.6,30.33,South,184,3.0,8.0,49,0.00,,,0.00,VWS V14.01,2013-03-28 21:15:00,
2013-03-28 16:20:00,49.9,32.0,30.33,South,187,5.0,6.0,50,0.00,,,0.00,VWS V14.01,2013-03-28 21:20:00,
2013-03-28 16:25:00,50.1,32.7,30.33,SE,142,7.0,8.0,51,0.00,,,0.00,VWS V14.01,2013-03-28 21:25:00,
2013-03-28 16:30:00,50.3,32.4,30.33,WSW,245,2.0,5.0,50,0.00,,,0.00,VWS V14.01,2013-03-28 21:30:00,
2013-03-28 16:35:00,50.3,32.9,30.33,SW,217,3.0,11.0,51,0.00,,,0.00,VWS V14.01,2013-03-28 21:35:00,
2013-03-28 16:40:00,50.2,32.3,30.33,SSW,204,4.0,6.0,50,0.00,,,0.00,VWS V14.01,2013-03-28 21:40:00,
2013-03-28 16:45:00,50.1,32.2,30.33,SW,236,2.0,7.0,50,0.00,,,0.00,VWS V14.01,2013-03-28 21:45:00,
2013-03-28 16:50:00,49.9,32.0,30.33,SSW,198,6.0,8.0,50,0.00,,CLR,0.00,VWS V14.01,2013-03-28 21:50:00,
2013-03-28 16:51:00,49.8,32.9,30.33,South,191,3.0,7.0,52,0.00,,,0.00,VWS V14.01,2013-03-28 21:51:00,
2013-03-28 16:56:00,49.6,32.7,30.33,South,184,7.0,8.0,52,0.00,,,0.00,VWS V14.01,2013-03-28 21:56:00,
2013-03-28 17:00:00,49.6,33.2,30.33,SSE,163,6.0,8.0,53,0.00,,CLR,0.00,VWS V14.01,2013-03-28 22:00:00,
2013-03-28 17:01:00,49.6,33.2,30.33,South,177,3.0,8.0,53,0.00,,,0.00,VWS V14.01,2013-03-28 22:01:00,
2013-03-28 17:06:00,49.4,32.5,30.32,South,183,8.0,8.0,52,0.00,,,0.00,VWS V14.01,2013-03-28 22:06:00,
2013-03-28 17:10:00,49.3,32.9,30.32,SW,220,5.0,8.0,53,0.00,,CLR,0.00,VWS V14.01,2013-03-28 22:10:00,
2013-03-28 17:12:00,49.3,33.4,30.32,SW,214,3.0,6.0,54,0.00,,,0.00,VWS V14.01,2013-03-28 22:12:00,
2013-03-28 17:17:00,49.2,32.8,30.32,SSW,193,4.0,7.0,53,0.00,,,0.00,VWS V14.01,2013-03-28 22:17:00,
2013-03-28 17:20:00,49.1,32.7,30.32,SSW,194,3.0,7.0,53,0.00,,CLR,0.00,VWS V14.01,2013-03-28 22:20:00,
2013-03-28 17:22:00,49.1,32.7,30.32,SSE,160,4.0,7.0,53,0.00,,,0.00,VWS V14.01,2013-03-28 22:22:00,
2013-03-28 17:27:00,48.9,32.5,30.32,South,191,5.0,9.0,53,0.00,,,0.00,VWS V14.01,2013-03-28 22:27:00,
2013-03-28 17:30:00,48.8,32.4,30.32,SSE,160,7.0,9.0,53,0.00,,CLR,0.00,VWS V14.01,2013-03-28 22:30:00,
2013-03-28 17:32:00,48.9,33.0,30.32,SSW,194,3.0,7.0,54,0.00,,,0.00,VWS V14.01,2013-03-28 22:32:00,
2013-03-28 17:37:00,48.9,32.5,30.32,SSE,163,4.0,7.0,53,0.00,,,0.00,VWS V14.01,2013-03-28 22:37:00,
2013-03-28 17:40:00,48.9,32.5,30.32,SSW,193,7.0,7.0,53,0.00,,CLR,0.00,VWS V14.01,2013-03-28 22:40:00,
2013-03-28 17:42:00,48.8,32.9,30.32,SSW,212,3.0,9.0,54,0.00,,,0.00,VWS V14.01,2013-03-28 22:42:00,
2013-03-28 17:48:00,48.8,32.9,30.32,South,179,4.0,9.0,54,0.00,,,0.00,VWS V14.01,2013-03-28 22:48:00,
2013-03-28 17:50:00,48.8,32.9,30.32,SSE,152,5.0,9.0,54,0.00,,CLR,0.00,VWS V14.01,2013-03-28 22:50:00,
2013-03-28 17:53:00,48.7,32.8,30.32,SW,214,2.0,6.0,54,0.00,,,0.00,VWS V14.01,2013-03-28 22:53:00,
2013-03-28 17:58:00,48.5,32.2,30.32,SSE,163,4.0,6.0,53,0.00,,,0.00,VWS V14.01,2013-03-28 22:58:00,
2013-03-28 18:00:00,48.5,32.2,30.32,SSW,195,6.0,6.0,53,0.00,,CLR,0.00,VWS V14.01,2013-03-28 23:00:00,
2013-03-28 18:03:00,48.3,32.0,30.32,South,190,3.0,7.0,53,0.00,,,0.00,VWS V14.01,2013-03-28 23:03:00,
2013-03-28 18:08:00,48.2,32.3,30.32,SSW,203,5.0,7.0,54,0.00,,,0.00,VWS V14.01,2013-03-28 23:08:00,
2013-03-28 18:10:00,48.2,32.3,30.32,SSW,203,5.0,7.0,54,0.00,,CLR,0.00,VWS V14.01,2013-03-28 23:10:00,
2013-03-28 18:14:00,48.1,32.7,30.32,SW,215,1.0,7.0,55,0.00,,,0.00,VWS V14.01,2013-03-28 23:14:00,
2013-03-28 18:19:00,47.9,32.5,30.32,SSW,203,0.0,1.0,55,0.00,,,0.00,VWS V14.01,2013-03-28 23:19:00,
2013-03-28 18:20:00,48.0,32.6,30.32,SW,228,1.0,7.0,55,0.00,,CLR,0.00,VWS V14.01,2013-03-28 23:20:00,
2013-03-28 18:24:00,47.8,32.4,30.32,South,176,4.0,4.0,55,0.00,,,0.00,VWS V14.01,2013-03-28 23:24:00,
2013-03-28 18:29:00,47.7,32.8,30.32,WSW,252,5.0,5.0,56,0.00,,,0.00,VWS V14.01,2013-03-28 23:29:00,
2013-03-28 18:30:00,47.8,32.9,30.32,WNW,286,1.0,5.0,56,0.00,,CLR,0.00,VWS V14.01,2013-03-28 23:30:00,
2013-03-28 18:34:00,47.4,33.0,30.32,SSE,147,3.0,6.0,57,0.00,,,0.00,VWS V14.01,2013-03-28 23:34:00,
2013-03-28 18:39:00,47.1,32.7,30.33,SSW,197,2.0,3.0,57,0.00,,,0.00,VWS V14.01,2013-03-28 23:39:00,
2013-03-28 18:40:00,47.1,33.1,30.32,SSW,203,3.0,6.0,58,0.00,,CLR,0.00,VWS V14.01,2013-03-28 23:40:00,
2013-03-28 18:45:00,46.8,32.8,30.33,SW,221,1.0,5.0,58,0.00,,,0.00,VWS V14.01,2013-03-28 23:45:00,
2013-03-28 18:50:00,46.5,33.0,30.33,SSW,207,3.0,5.0,59,0.00,,,0.00,VWS V14.01,2013-03-28 23:50:00,
2013-03-28 18:55:00,46.2,33.1,30.33,SSE,161,3.0,6.0,60,0.00,,,0.00,VWS V14.01,2013-03-28 23:55:00,
2013-03-28 19:00:00,45.9,33.2,30.33,SW,233,1.0,2.0,61,0.00,,,0.00,VWS V14.01,2013-03-29 00:00:00,
2013-03-28 19:05:00,45.5,32.8,30.33,SSW,194,1.0,4.0,61,0.00,,,0.00,VWS V14.01,2013-03-29 00:05:00,
2013-03-28 19:10:00,45.3,33.1,30.33,SW,222,1.0,3.0,62,0.00,,,0.00,VWS V14.01,2013-03-29 00:10:00,
2013-03-28 19:15:00,45.0,32.8,30.33,SSW,210,1.0,3.0,62,0.00,,,0.00,VWS V14.01,2013-03-29 00:15:00,
2013-03-28 19:20:00,44.7,32.5,30.33,SSW,194,0.0,1.0,62,0.00,,,0.00,VWS V14.01,2013-03-29 00:20:00,
2013-03-28 19:26:00,44.3,32.5,30.33,SSW,194,0.0,1.0,63,0.00,,,0.00,VWS V14.01,2013-03-29 00:26:00,
2013-03-28 19:30:00,44.1,32.3,30.33,SSW,195,0.0,1.0,63,0.00,,CLR,0.00,VWS V14.01,2013-03-29 00:30:00,
2013-03-28 19:31:00,44.0,32.6,30.33,SSW,198,1.0,1.0,64,0.00,,,0.00,VWS V14.01,2013-03-29 00:31:00,
2013-03-28 19:36:00,43.7,32.3,30.33,SSW,208,0.0,1.0,64,0.00,,,0.00,VWS V14.01,2013-03-29 00:36:00,
2013-03-28 19:40:00,43.6,32.2,30.33,SSW,208,0.0,1.0,64,0.00,,CLR,0.00,VWS V14.01,2013-03-29 00:40:00,
2013-03-28 19:41:00,43.4,32.0,30.33,SW,224,0.0,2.0,64,0.00,,,0.00,VWS V14.01,2013-03-29 00:41:00,
2013-03-28 19:47:00,43.2,32.2,30.34,WSW,252,0.0,2.0,65,0.00,,,0.00,VWS V14.01,2013-03-29 00:47:00,
2013-03-28 19:50:00,43.2,32.6,30.34,WSW,253,1.0,2.0,66,0.00,,CLR,0.00,VWS V14.01,2013-03-29 00:50:00,
2013-03-28 19:52:00,43.2,32.6,30.34,WSW,243,1.0,1.0,66,0.00,,,0.00,VWS V14.01,2013-03-29 00:52:00,
2013-03-28 19:57:00,43.1,32.5,30.34,SSW,207,0.0,3.0,66,0.00,,,0.00,VWS V14.01,2013-03-29 00:57:00,
2013-03-28 20:00:00,43.0,32.4,30.34,SSW,207,0.0,3.0,66,0.00,,CLR,0.00,VWS V14.01,2013-03-29 01:00:00,
2013-03-28 20:02:00,42.8,32.6,30.34,SSW,202,0.0,1.0,67,0.00,,,0.00,VWS V14.01,2013-03-29 01:02:00,
2013-03-28 20:07:00,42.6,32.4,30.34,SSW,204,0.0,1.0,67,0.00,,,0.00,VWS V14.01,2013-03-29 01:07:00,
2013-03-28 20:10:00,42.5,32.3,30.34,SSW,204,0.0,1.0,67,0.00,,CLR,0.00,VWS V14.01,2013-03-29 01:10:00,
2013-03-28 20:12:00,42.4,32.6,30.34,SSW,204,0.0,0.0,68,0.00,,,0.00,VWS V14.01,2013-03-29 01:12:00,
2013-03-28 20:17:00,42.1,32.3,30.34,SSW,204,0.0,0.0,68,0.00,,,0.00,VWS V14.01,2013-03-29 01:17:00,
2013-03-28 20:20:00,42.1,32.3,30.34,SSW,204,0.0,0.0,68,0.00,,CLR,0.00,VWS V14.01,2013-03-29 01:20:00,
2013-03-28 20:23:00,41.9,32.5,30.34,SSW,204,0.0,0.0,69,0.00,,,0.00,VWS V14.01,2013-03-29 01:23:00,
2013-03-28 20:28:00,41.6,32.2,30.34,SSW,204,0.0,0.0,69,0.00,,,0.00,VWS V14.01,2013-03-29 01:28:00,
2013-03-28 20:30:00,41.5,32.1,30.34,SSW,204,0.0,0.0,69,0.00,,CLR,0.00,VWS V14.01,2013-03-29 01:30:00,
2013-03-28 20:33:00,41.3,32.3,30.34,SSW,204,0.0,0.0,70,0.00,,,0.00,VWS V14.01,2013-03-29 01:33:00,
2013-03-28 20:38:00,41.2,32.2,30.34,SSW,204,0.0,0.0,70,0.00,,,0.00,VWS V14.01,2013-03-29 01:38:00,
2013-03-28 20:40:00,41.2,32.2,30.34,SSW,204,0.0,0.0,70,0.00,,CLR,0.00,VWS V14.01,2013-03-29 01:40:00,
2013-03-28 20:43:00,41.0,32.0,30.34,SSW,204,0.0,0.0,70,0.00,,,0.00,VWS V14.01,2013-03-29 01:43:00,
2013-03-28 20:48:00,40.8,32.1,30.35,SSW,204,0.0,0.0,71,0.00,,,0.00,VWS V14.01,2013-03-29 01:48:00,
2013-03-28 20:50:00,40.7,32.0,30.35,SSW,204,0.0,0.0,71,0.00,,CLR,0.00,VWS V14.01,2013-03-29 01:50:00,
2013-03-28 20:53:00,40.7,32.0,30.35,WSW,255,0.0,2.0,71,0.00,,,0.00,VWS V14.01,2013-03-29 01:53:00,
2013-03-28 20:59:00,40.7,32.0,30.35,WSW,255,0.0,2.0,71,0.00,,,0.00,VWS V14.01,2013-03-29 01:59:00,
2013-03-28 21:00:00,40.7,32.0,30.35,WSW,255,0.0,2.0,71,0.00,,CLR,0.00,VWS V14.01,2013-03-29 02:00:00,
2013-03-28 21:04:00,40.7,32.0,30.35,WSW,255,0.0,1.0,71,0.00,,,0.00,VWS V14.01,2013-03-29 02:04:00,
2013-03-28 21:09:00,40.8,32.1,30.35,WSW,238,2.0,2.0,71,0.00,,,0.00,VWS V14.01,2013-03-29 02:09:00,
2013-03-28 21:10:00,40.8,32.1,30.35,WSW,255,0.0,1.0,71,0.00,,CLR,0.00,VWS V14.01,2013-03-29 02:10:00,
2013-03-28 21:14:00,41.0,32.0,30.35,WSW,248,0.0,2.0,70,0.00,,,0.00,VWS V14.01,2013-03-29 02:14:00,
2013-03-28 21:19:00,40.9,31.9,30.35,SSW,210,0.0,1.0,70,0.00,,,0.00,VWS V14.01,2013-03-29 02:19:00,
2013-03-28 21:20:00,40.9,31.9,30.35,SSW,210,0.0,2.0,70,0.00,,CLR,0.00,VWS V14.01,2013-03-29 02:20:00,
2013-03-28 21:24:00,40.7,32.0,30.35,SE,143,0.0,1.0,71,0.00,,,0.00,VWS V14.01,2013-03-29 02:24:00,
2013-03-28 21:29:00,40.5,31.9,30.35,SE,145,0.0,1.0,71,0.00,,,0.00,VWS V14.01,2013-03-29 02:29:00,
2013-03-28 21:30:00,40.5,31.9,30.35,SE,145,0.0,1.0,71,0.00,,CLR,0.00,VWS V14.01,2013-03-29 02:30:00,
2013-03-28 21:34:00,40.4,31.8,30.35,SE,145,0.0,1.0,71,0.00,,,0.00,VWS V14.01,2013-03-29 02:34:00,
2013-03-28 21:40:00,40.2,31.9,30.35,WSW,245,0.0,0.0,72,0.00,,,0.00,VWS V14.01,2013-03-29 02:40:00,
2013-03-28 21:45:00,40.2,31.9,30.35,SW,215,0.0,1.0,72,0.00,,,0.00,VWS V14.01,2013-03-29 02:45:00,
2013-03-28 21:50:00,40.2,31.9,30.35,SW,215,0.0,0.0,72,0.00,,,0.00,VWS V14.01,2013-03-29 02:50:00,
2013-03-28 21:55:00,40.1,31.8,30.35,SW,214,0.0,0.0,72,0.00,,,0.00,VWS V14.01,2013-03-29 02:55:00,
2013-03-28 22:00:00,40.0,31.7,30.35,SW,215,0.0,0.0,72,0.00,,,0.00,VWS V14.01,2013-03-29 03:00:00,
2013-03-28 22:05:00,40.1,31.8,30.35,SW,217,0.0,0.0,72,0.00,,,0.00,VWS V14.01,2013-03-29 03:05:00,
2013-03-28 22:10:00,40.2,31.9,30.35,SW,217,0.0,0.0,72,0.00,,,0.00,VWS V14.01,2013-03-29 03:10:00,
2013-03-28 22:16:00,40.2,31.9,30.35,SW,217,0.0,0.0,72,0.00,,,0.00,VWS V14.01,2013-03-29 03:16:00,
2013-03-28 22:20:00,40.2,31.9,30.35,SW,217,0.0,0.0,72,0.00,,CLR,0.00,VWS V14.01,2013-03-29 03:20:00,
2013-03-28 22:21:00,40.2,31.9,30.35,SW,217,0.0,0.0,72,0.00,,,0.00,VWS V14.01,2013-03-29 03:21:00,
2013-03-28 22:26:00,40.1,31.5,30.35,SW,217,0.0,0.0,71,0.00,,,0.00,VWS V14.01,2013-03-29 03:26:00,
2013-03-28 22:30:00,40.1,31.5,30.35,SW,217,0.0,0.0,71,0.00,,CLR,0.00,VWS V14.01,2013-03-29 03:30:00,
2013-03-28 22:31:00,40.0,31.7,30.35,SW,217,0.0,0.0,72,0.00,,,0.00,VWS V14.01,2013-03-29 03:31:00,
2013-03-28 22:37:00,39.9,31.6,30.35,SW,217,0.0,1.0,72,0.00,,,0.00,VWS V14.01,2013-03-29 03:37:00,
2013-03-28 22:40:00,39.9,31.6,30.35,SW,217,0.0,1.0,72,0.00,,CLR,0.00,VWS V14.01,2013-03-29 03:40:00,
2013-03-28 22:42:00,39.9,31.6,30.35,SW,217,0.0,0.0,72,0.00,,,0.00,VWS V14.01,2013-03-29 03:42:00,
2013-03-28 22:47:00,40.0,31.7,30.35,SSW,207,0.0,1.0,72,0.00,,,0.00,VWS V14.01,2013-03-29 03:47:00,
2013-03-28 22:50:00,40.1,31.8,30.35,SSW,200,0.0,1.0,72,0.00,,CLR,0.00,VWS V14.01,2013-03-29 03:50:00,
2013-03-28 22:52:00,40.3,31.7,30.35,SSW,200,0.0,0.0,71,0.00,,,0.00,VWS V14.01,2013-03-29 03:52:00,
2013-03-28 22:58:00,40.4,31.8,30.35,SSW,200,0.0,0.0,71,0.00,,,0.00,VWS V14.01,2013-03-29 03:58:00,
2013-03-28 23:00:00,40.4,31.4,30.35,SSW,200,0.0,0.0,70,0.00,,,0.00,VWS V14.01,2013-03-29 04:00:00,
2013-03-28 23:01:00,40.4,31.4,30.35,SSW,200,0.0,0.0,70,0.00,,,0.00,VWS V14.01,2013-03-29 04:01:00,
2013-03-28 23:02:00,40.4,31.4,30.35,SSW,200,0.0,0.0,70,0.00,,,0.00,VWS V14.01,2013-03-29 04:02:00,
2013-03-28 23:07:00,40.4,31.8,30.35,SSE,149,0.0,0.0,71,0.00,,,0.00,VWS V14.01,2013-03-29 04:07:00,
2013-03-28 23:10:00,40.4,31.4,30.35,SSE,149,1.0,1.0,70,0.00,,CLR,0.00,VWS V14.01,2013-03-29 04:10:00,
2013-03-28 23:12:00,40.5,31.5,30.34,SSE,150,0.0,1.0,70,0.00,,,0.00,VWS V14.01,2013-03-29 04:12:00,
2013-03-28 23:17:00,40.6,31.6,30.35,SSE,149,1.0,2.0,70,0.00,,,0.00,VWS V14.01,2013-03-29 04:17:00,
2013-03-28 23:20:00,40.6,31.6,30.35,SSE,150,0.0,2.0,70,0.00,,CLR,0.00,VWS V14.01,2013-03-29 04:20:00,
2013-03-28 23:22:00,40.7,31.3,30.34,SSE,149,0.0,1.0,69,0.00,,,0.00,VWS V14.01,2013-03-29 04:22:00,
2013-03-28 23:28:00,40.6,31.6,30.34,SSE,152,1.0,1.0,70,0.00,,,0.00,VWS V14.01,2013-03-29 04:28:00,
2013-03-28 23:30:00,40.6,31.6,30.34,South,179,2.0,2.0,70,0.00,,CLR,0.00,VWS V14.01,2013-03-29 04:30:00,
2013-03-28 23:33:00,40.4,31.4,30.34,South,176,0.0,2.0,70,0.00,,,0.00,VWS V14.01,2013-03-29 04:33:00,
2013-03-28 23:38:00,40.2,31.2,30.34,SSE,160,0.0,2.0,70,0.00,,,0.00,VWS V14.01,2013-03-29 04:38:00,
2013-03-28 23:40:00,40.3,31.3,30.34,SSE,160,0.0,2.0,70,0.00,,CLR,0.00,VWS V14.01,2013-03-29 04:40:00,
2013-03-28 23:43:00,40.1,31.1,30.34,SSE,160,0.0,0.0,70,0.00,,,0.00,VWS V14.01,2013-03-29 04:43:00,
2013-03-28 23:48:00,40.1,31.1,30.34,SSE,160,0.0,0.0,70,0.00,,,0.00,VWS V14.01,2013-03-29 04:48:00,
2013-03-28 23:50:00,40.1,31.1,30.34,SSE,160,0.0,0.0,70,0.00,,CLR,0.00,VWS V14.01,2013-03-29 04:50:00,
2013-03-28 23:53:00,40.3,31.0,30.34,SSE,160,0.0,0.0,69,0.00,,,0.00,VWS V14.01,2013-03-29 04:53:00,
2013-03-28 23:58:00,40.4,30.7,30.34,SSE,160,0.0,0.0,68,0.00,,,0.00,VWS V14.01,2013-03-29 04:58:00,